< < Back
Terminal Aerodrome Forecast


Current Version              Previous Versions:   1  2  3  4  5  6  7  8  9  

Terminal Aerodrome Forecast

202
FTUS42 KILM 302300
TAFFLO
TAF
KFLO 302325Z 0100/0124 VRB02KT P6SM SKC
     FM010800 00000KT 4SM BR SKC
      TEMPO 0109/0112 2SM BR
     FM011300 03006KT P6SM FEW050=

Latest METAR

253
SAUS70 KWBC 302300 RRE
MTRFLO
METAR KFLO 302253Z 00000KT 10SM CLR 24/18 A2986 RMK AO2 SLP107
T02440178


USA.gov is the U.S. government's official web portal to all federal, state and local government web resources and services.